Regional Weather Roundup
Issued by NWS Charleston, SC

Current Version | Previous Version | Graphics & Text | Print | Product List | Glossary On
Versions: 1 2 3 4 5 6 7 8 9 10 11 12 13 14 15 16 17 18 19 20 21 22 23 24 25 26 27 28 29 30 31 32 33 34 35 36 37 38 39 40 41 42 43 44 45 46 47 48 49 50
000
ASUS42 KCHS 020025
RWRCHS

REGIONAL WEATHER ROUNDUP
NATIONAL WEATHER SERVICE CHARLESTON SC
800 PM EDT WED OCT 01 2014

NOTE: "FAIR" INDICATES FEW OR NO CLOUDS BELOW 12,000 FEET WITH NO
SIGNIFICANT WEATHER AND/OR OBSTRUCTIONS TO VISIBILITY.

NOT ALL STATIONS ARE QUALITY CONTROLLED BY THE NATIONAL
WEATHER SERVICE. USE DATA WITH CAUTION...ESPECIALLY
DEWPOINT OBSERVATIONS.

SCZ027-030-031-034>040-042>050-020100-
...SOUTH CAROLINA...

CITY           SKY/WX    TMP DP  RH WIND       PRES   REMARKS
N CHARLESTON   PTCLDY    74  62  66 SE3       30.00R
6HR MIN TEMP:  74; 6HR MAX TEMP:  86;

WATERFRONT PRK   N/A     73 N/A N/A E6          N/A
FORT JOHNSON   NOT AVBL
MOUNT PLEASANT FAIR      68  66  94 CALM      30.00S
JOHNS ISLAND   CLEAR     70  70 100 CALM      30.01R
PINOPOLIS        N/A     79  68  69 S2        29.92R
MONCKS CORNER  FAIR      73  68  83 CALM      30.00R
SUMMERVILLE    FAIR      73  68  83 SE3       30.01R
BEAUFORT MCAS  CLEAR     74  68  81 E3        29.99S
6HR MIN TEMP:  74; 6HR MAX TEMP:  85;

BEAUFORT ARPT  FAIR      72  70  94 CALM      29.99R
HILTON HEAD IS CLEAR     70  68  94 E3        30.01R
GEORGETOWN     NOT AVBL
WALTERBORO     CLEAR     72 N/A N/A SE3       30.01R
ORANGEBURG     CLEAR     72  64  76 CALM      29.99R
6HR MIN TEMP:  72; 6HR MAX TEMP:  85;

BARNWELL       FAIR      73  64  73 CALM      30.00R
AIKEN          MOCLDY    72  66  83 CALM      30.03R
MANNING        FAIR      70 N/A N/A CALM      30.00R
KINGSTREE      NOT AVBL
COLUMBIA       PTCLDY    79  60  52 SE3       29.98R
6HR MIN TEMP:  79; 6HR MAX TEMP:  88;

SUMTER         CLEAR     75  65  70 S3        29.98R
6HR MIN TEMP:  75; 6HR MAX TEMP:  86;

FLORENCE       MOCLDY    74  68  81 CALM      29.99R
6HR MIN TEMP:  74; 6HR MAX TEMP:  84;

MYRTLE BEACH   PTCLDY    75  64  69 S8        30.00R
N MYRTLE BEACH CLEAR     70  66  87 CALM      29.99R
6HR MIN TEMP:  70; 6HR MAX TEMP:  79;


$$

GAZ063-065-086>088-099>101-113>116-118-119-134-136>141-150-020100-
...GEORGIA...

CITY           SKY/WX    TMP DP  RH WIND       PRES   REMARKS
SAVANNAH ARPT  PTCLDY    75  64  68 VRB5      29.99R
6HR MIN TEMP:  75; 6HR MAX TEMP:  87;

HUNTER AAF     CLEAR     73  66  77 E2        29.97R
6HR MIN TEMP:  73; 6HR MAX TEMP:  84;

FORT STEWART   CLEAR     71  66  82 CALM      29.97S
6HR MIN TEMP:  71; 6HR MAX TEMP:  83;

STATESBORO     NOT AVBL
SYLVANIA       CLEAR     72  70  93 CALM      30.00R
CLAXTON        FAIR      72  70  94 CALM      29.99R
THOMSON        CLEAR     72  72 100 CALM      30.04R
AUGUSTA-BUSH   CLEAR     70  64  81 CALM      29.97R
6HR MIN TEMP:  70; 6HR MAX TEMP:  86;

AUGUSTA-DANIEL PTCLDY    80  60  50 S5        29.99R
SWAINSBORO     FAIR      73  68  83 CALM      29.99R
VIDALIA        PTCLDY    75  68  78 CALM      29.99R
ALMA           CLEAR     71  68  90 CALM      29.97S
6HR MIN TEMP:  71; 6HR MAX TEMP:  86;

WAYCROSS       MOCLDY    77  74  91 CALM      29.98R
JESUP          CLOUDY    73  70  88 CALM      29.98S
BRUNSWICK      CLOUDY    73  68  83 CALM      29.99R
SAINT SIMONS   PTCLDY    74  67  78 NE6       29.98S
6HR MIN TEMP:  74; 6HR MAX TEMP:  80;


$$

SCZ027-028-034-036>038-045-046-048>050-GAZ119-141-020100-
...LAKE AND SUPPLEMENTAL COASTAL OBSERVATIONS...

STATION/POSITION TIME  TEMP    WIND        PRES    WAVE   SWELL
                       AIR SEA DIR/SP/G            HT/PER HT/PER/DIR
                 (UTC) (F)     (DEG/KT/KT) (MB)    (FT/S) (FT/S/D)
UPR LAKE MARION  NOT AVBL
WINYAH BAY       0000   74     180/  2     1015.0S
LAKE MURRAY      2300   78        CALM     1014.2S
ACE BASIN NERRS  0000   73        CALM     1016.0S
FORT PULASKI     0000   74     110/  4/  6 1015.7R
SAPELO ISLAND    NOT AVBL

$$

ANZ835-935-AMZ111-154-330-350-352-354-374-450-454-472-020100-
...C-MAN AND BUOY OBSERVATIONS...

STATION/POSITION TIME  TEMP    WIND        PRES    WAVE   SWELL
                       AIR SEA DIR/SP/G            HT/PER HT/PER/DIR
                 (UTC) (F)     (DEG/KT/KT) (MB)    (FT/S) (FT/S/D)
FOLLY BEACH CMAN 0000   75     100/  8/  9 1016.3R
BUOY 41004       0000   76 81   40/  8/ 10 1015.5R   2/ 5   2/ 5
BUOY 41008       0000   77 79   60/ 12/ 14 1015.0S   2/13   2/13
5E ST. MARYS GA  NOT AVBL
FRYING PAN BUOY  NOT AVBL
BUOY 41025       0000   71      10/ 16/ 19 1015.3R   3/ 7   2/ 60/ 7
CAPE LOOKOUT NC  0000   74      50/  8/ 10 1015.5R
BUOY 41002       NOT AVBL
BUOY 41010       0000   80 85   30/  8/ 10 1013.8R   3/ 7   3/ 40/ 7
BUOY 41012       NOT AVBL
ST AUGUSTINE FL  0000   79      40/ 13/ 15 1014.7S
CAPERS NEARSHORE 2300   75     110/  8/ 10   N/A
FRIPP NEARSHORE  NOT AVBL


$$


USA.gov is the U.S. government's official web portal to all federal, state and local government web resources and services.